FLX717 SBGL-SBGR

Flight info

Callsign FLX717
Flight time 0h 45m
Altitude 34000
Route SIDUR UZ10 EDMUS
Aircraft B77W/H-SDE1E2E3FGHIJ2J3J4J5M1RWXY/LB1D1

Departure

Time 2026-05-06 19:00
Airport Rio Galeão – Tom Jobim International Airport (SBGL)

Arrival

Time 2026-05-06 19:45
Airport São Paulo/Guarulhos–Governor André Franco Montoro International Airport (SBGR)
Time Latitude Longitude Altitude Speed Heading
2026-05-06 18:22 -22.81605 -43.24949 37 ft 0 kts 217°
2026-05-06 18:37 -22.81596 -43.24941 37 ft 2 kts 219°
2026-05-06 18:38 -22.81585 -43.24930 37 ft 2 kts 234°
2026-05-06 18:38 -22.81577 -43.24916 37 ft 2 kts 246°
2026-05-06 18:38 -22.81573 -43.24901 37 ft 2 kts 258°
2026-05-06 18:38 -22.81571 -43.24885 37 ft 2 kts 270°
2026-05-06 18:39 -22.81572 -43.24869 37 ft 2 kts 281°
2026-05-06 18:39 -22.81576 -43.24853 37 ft 2 kts 293°
2026-05-06 18:39 -22.81583 -43.24839 37 ft 1 kts 305°
2026-05-06 18:40 -22.81586 -43.24835 37 ft 0 kts 308°
2026-05-06 18:46 -22.81583 -43.24839 37 ft 2 kts 308°
2026-05-06 18:46 -22.81556 -43.24873 37 ft 8 kts 312°
2026-05-06 18:46 -22.81511 -43.24936 37 ft 12 kts 305°
2026-05-06 18:47 -22.81483 -43.25019 37 ft 11 kts 257°
2026-05-06 18:47 -22.81534 -43.25081 37 ft 11 kts 214°
2026-05-06 18:47 -22.81596 -43.25128 37 ft 10 kts 217°
2026-05-06 18:47 -22.81603 -43.25191 37 ft 9 kts 301°
2026-05-06 18:48 -22.81566 -43.25252 37 ft 9 kts 304°
2026-05-06 18:48 -22.81529 -43.25309 37 ft 9 kts 305°
2026-05-06 18:48 -22.81491 -43.25367 37 ft 9 kts 305°
2026-05-06 18:48 -22.81452 -43.25426 37 ft 10 kts 305°
2026-05-06 18:49 -22.81407 -43.25494 37 ft 11 kts 306°
2026-05-06 18:49 -22.81359 -43.25567 37 ft 12 kts 305°
2026-05-06 18:49 -22.81307 -43.25645 37 ft 12 kts 305°
2026-05-06 18:49 -22.81256 -43.25722 37 ft 12 kts 305°
2026-05-06 18:50 -22.81205 -43.25799 37 ft 12 kts 305°
2026-05-06 18:50 -22.81153 -43.25878 37 ft 12 kts 305°
2026-05-06 18:50 -22.81081 -43.25913 37 ft 12 kts 14°
2026-05-06 18:50 -22.81004 -43.25866 37 ft 12 kts 34°
2026-05-06 18:51 -22.80931 -43.25811 37 ft 12 kts 34°
2026-05-06 18:51 -22.80858 -43.25756 37 ft 12 kts 35°
2026-05-06 18:51 -22.80783 -43.25699 37 ft 12 kts 35°
2026-05-06 18:51 -22.80710 -43.25642 37 ft 13 kts 35°
2026-05-06 18:52 -22.80636 -43.25585 37 ft 13 kts 35°
2026-05-06 18:52 -22.80559 -43.25534 37 ft 12 kts 12°
2026-05-06 18:52 -22.80477 -43.25569 37 ft 13 kts 324°
2026-05-06 18:52 -22.80397 -43.25613 37 ft 13 kts 358°
2026-05-06 18:53 -22.80316 -43.25569 37 ft 13 kts 37°
2026-05-06 18:53 -22.80243 -43.25510 37 ft 13 kts 30°
2026-05-06 18:53 -22.80172 -43.25453 37 ft 12 kts 60°
2026-05-06 18:53 -22.80145 -43.25367 37 ft 11 kts 75°
2026-05-06 18:54 -22.80123 -43.25282 37 ft 12 kts 75°
2026-05-06 18:54 -22.80076 -43.25095 37 ft 39 kts 75°
2026-05-06 18:54 -22.79969 -43.24657 37 ft 77 kts 74°
2026-05-06 18:54 -22.79878 -43.24235 37 ft 27 kts 92°
2026-05-06 18:55 -22.79889 -43.24086 37 ft 13 kts 95°
2026-05-06 18:55 -22.79897 -43.23985 37 ft 13 kts 94°
2026-05-06 18:55 -22.79911 -43.23893 37 ft 12 kts 115°
2026-05-06 18:55 -22.79977 -43.23859 37 ft 10 kts 201°
2026-05-06 18:56 -22.80014 -43.23926 37 ft 10 kts 253°
2026-05-06 18:56 -22.80036 -43.24006 37 ft 13 kts 254°
2026-05-06 18:56 -22.80064 -43.24117 37 ft 17 kts 254°
2026-05-06 18:56 -22.80100 -43.24256 37 ft 20 kts 254°
2026-05-06 18:57 -22.80142 -43.24419 37 ft 24 kts 254°
2026-05-06 18:57 -22.80190 -43.24604 37 ft 25 kts 253°
2026-05-06 18:57 -22.80237 -43.24786 37 ft 24 kts 255°
2026-05-06 18:57 -22.80280 -43.24956 37 ft 22 kts 254°
2026-05-06 18:58 -22.80321 -43.25115 37 ft 21 kts 254°
2026-05-06 18:58 -22.80357 -43.25234 37 ft 11 kts 251°
2026-05-06 18:58 -22.80345 -43.25315 37 ft 11 kts 297°
2026-05-06 18:58 -22.80309 -43.25388 37 ft 10 kts 298°
2026-05-06 18:59 -22.80271 -43.25457 37 ft 10 kts 313°
2026-05-06 18:59 -22.80211 -43.25499 37 ft 8 kts 349°
2026-05-06 18:59 -22.80169 -43.25457 37 ft 9 kts 71°
2026-05-06 18:59 -22.80151 -43.25391 37 ft 11 kts 74°
2026-05-06 19:00 -22.80096 -43.25180 37 ft 59 kts 73°
2026-05-06 19:00 -22.79914 -43.24471 37 ft 135 kts 75°
2026-05-06 19:00 -22.79621 -43.23296 296 ft 176 kts 79°
2026-05-06 19:00 -22.79336 -43.22042 1151 ft 176 kts 77°
2026-05-06 19:01 -22.79049 -43.20757 1784 ft 181 kts 76°
2026-05-06 19:01 -22.78750 -43.19374 2122 ft 199 kts 76°
2026-05-06 19:01 -22.78423 -43.17857 2427 ft 218 kts 76°
2026-05-06 19:01 -22.78070 -43.16213 2954 ft 224 kts 76°
2026-05-06 19:02 -22.77716 -43.14567 3537 ft 230 kts 76°
2026-05-06 19:02 -22.77339 -43.12818 4060 ft 246 kts 76°
2026-05-06 19:02 -22.76942 -43.10974 4595 ft 261 kts 76°
2026-05-06 19:02 -22.76525 -43.09036 5442 ft 264 kts 76°
2026-05-06 19:03 -22.76111 -43.07116 6280 ft 266 kts 76°
2026-05-06 19:03 -22.75692 -43.05159 7026 ft 271 kts 76°
2026-05-06 19:03 -22.75262 -43.03189 7794 ft 274 kts 73°
2026-05-06 19:03 -22.74378 -43.01360 8489 ft 278 kts 49°
2026-05-06 19:04 -22.72878 -43.00095 9219 ft 281 kts 26°
2026-05-06 19:04 -22.70972 -42.99600 9900 ft 288 kts
2026-05-06 19:04 -22.68964 -42.99986 10444 ft 301 kts 343°
2026-05-06 19:04 -22.66948 -43.00784 10823 ft 319 kts 340°
2026-05-06 19:05 -22.64859 -43.01813 11215 ft 337 kts 331°
2026-05-06 19:05 -22.62893 -43.03277 11641 ft 355 kts 321°
2026-05-06 19:05 -22.61112 -43.05227 12119 ft 371 kts 309°
2026-05-06 19:05 -22.59664 -43.07613 12625 ft 387 kts 297°
2026-05-06 19:06 -22.58625 -43.10341 13321 ft 397 kts 290°
2026-05-06 19:06 -22.57715 -43.13144 14203 ft 402 kts 289°
2026-05-06 19:06 -22.56788 -43.16013 15150 ft 406 kts 289°
2026-05-06 19:06 -22.55860 -43.18879 16112 ft 411 kts 288°
2026-05-06 19:07 -22.54914 -43.21806 17061 ft 416 kts 287°
2026-05-06 19:07 -22.54246 -43.24836 17906 ft 421 kts 277°
2026-05-06 19:07 -22.54072 -43.27994 18745 ft 425 kts 267°
2026-05-06 19:07 -22.54391 -43.31200 19136 ft 427 kts 257°
2026-05-06 19:08 -22.55078 -43.34295 19175 ft 426 kts 254°
2026-05-06 19:08 -22.55828 -43.37407 19176 ft 425 kts 254°
2026-05-06 19:08 -22.56564 -43.40467 19170 ft 424 kts 254°
2026-05-06 19:08 -22.57301 -43.43559 19159 ft 424 kts 255°
2026-05-06 19:09 -22.58035 -43.46653 19157 ft 424 kts 254°
2026-05-06 19:09 -22.58760 -43.49727 19156 ft 424 kts 254°
2026-05-06 19:09 -22.59487 -43.52821 19150 ft 424 kts 254°
2026-05-06 19:09 -22.60216 -43.55929 19157 ft 425 kts 255°
2026-05-06 19:10 -22.60932 -43.58990 19143 ft 425 kts 255°
2026-05-06 19:10 -22.61673 -43.62158 19425 ft 440 kts 254°
2026-05-06 19:10 -22.62414 -43.65337 20608 ft 437 kts 255°
2026-05-06 19:10 -22.63142 -43.68464 21890 ft 432 kts 255°
2026-05-06 19:11 -22.63874 -43.71610 22912 ft 432 kts 255°
2026-05-06 19:11 -22.64602 -43.74746 23652 ft 438 kts 255°
2026-05-06 19:11 -22.65354 -43.77987 24321 ft 446 kts 255°
2026-05-06 19:11 -22.66109 -43.81245 25051 ft 449 kts 255°
2026-05-06 19:12 -22.66870 -43.84530 25693 ft 455 kts 255°
2026-05-06 19:12 -22.67639 -43.87853 26357 ft 462 kts 255°
2026-05-06 19:12 -22.68423 -43.91248 27180 ft 465 kts 254°
2026-05-06 19:12 -22.69205 -43.94637 28054 ft 467 kts 254°
2026-05-06 19:13 -22.69986 -43.98023 28750 ft 472 kts 253°
2026-05-06 19:13 -22.70787 -44.01496 29396 ft 478 kts 253°
2026-05-06 19:13 -22.71585 -44.04964 30194 ft 478 kts 253°
2026-05-06 19:13 -22.72385 -44.08453 31239 ft 473 kts 253°
2026-05-06 19:14 -22.73154 -44.11806 32476 ft 460 kts 252°
2026-05-06 19:14 -22.73912 -44.15119 33601 ft 450 kts 252°
2026-05-06 19:14 -22.74675 -44.18427 34172 ft 450 kts 250°
2026-05-06 19:15 -22.77153 -44.24674 34251 ft 461 kts 235°
2026-05-06 19:15 -22.80722 -44.30592 34247 ft 469 kts 234°
2026-05-06 19:16 -22.84324 -44.36524 34234 ft 469 kts 234°
2026-05-06 19:16 -22.87922 -44.42470 34219 ft 471 kts 233°
2026-05-06 19:17 -22.91529 -44.48445 34187 ft 469 kts 234°
2026-05-06 19:17 -22.95071 -44.54324 34185 ft 468 kts 234°
2026-05-06 19:18 -22.98630 -44.60241 34197 ft 467 kts 234°
2026-05-06 19:18 -23.02068 -44.66234 34214 ft 471 kts 240°
2026-05-06 19:19 -23.04268 -44.72921 34234 ft 476 kts 251°
2026-05-06 19:19 -23.05853 -44.79925 34244 ft 480 kts 252°
2026-05-06 19:20 -23.07429 -44.86951 34173 ft 471 kts 252°
2026-05-06 19:20 -23.08189 -44.90353 33530 ft 466 kts 252°
2026-05-06 19:20 -23.08953 -44.93759 32586 ft 469 kts 252°
2026-05-06 19:20 -23.09729 -44.97224 31722 ft 469 kts 252°
2026-05-06 19:21 -23.10498 -45.00659 30934 ft 469 kts 252°
2026-05-06 19:21 -23.11260 -45.04076 30469 ft 461 kts 252°
2026-05-06 19:21 -23.12000 -45.07399 30003 ft 455 kts 252°
2026-05-06 19:21 -23.12742 -45.10730 29497 ft 449 kts 252°
2026-05-06 19:22 -23.13465 -45.13978 28976 ft 444 kts 253°
2026-05-06 19:22 -23.14185 -45.17215 28446 ft 440 kts 253°
2026-05-06 19:22 -23.14901 -45.20437 27922 ft 436 kts 253°
2026-05-06 19:22 -23.15607 -45.23616 27400 ft 431 kts 253°
2026-05-06 19:23 -23.16306 -45.26769 26870 ft 427 kts 253°
2026-05-06 19:23 -23.16994 -45.29876 26349 ft 423 kts 253°
2026-05-06 19:23 -23.17680 -45.32975 25819 ft 420 kts 253°
2026-05-06 19:23 -23.18361 -45.36048 25296 ft 429 kts 254°
2026-05-06 19:24 -23.19067 -45.39236 24743 ft 433 kts 254°
2026-05-06 19:24 -23.19767 -45.42396 24182 ft 431 kts 254°
2026-05-06 19:24 -23.20466 -45.45547 23628 ft 427 kts 254°
2026-05-06 19:24 -23.21155 -45.48656 23083 ft 423 kts 255°
2026-05-06 19:25 -23.21835 -45.51729 22527 ft 420 kts 254°
2026-05-06 19:25 -23.22515 -45.54807 21993 ft 417 kts 254°
2026-05-06 19:25 -23.23228 -45.57805 21443 ft 414 kts 251°
2026-05-06 19:25 -23.24069 -45.60802 20895 ft 413 kts 251°
2026-05-06 19:26 -23.24910 -45.63778 20335 ft 411 kts 251°
2026-05-06 19:26 -23.25738 -45.66729 19804 ft 408 kts 251°
2026-05-06 19:26 -23.26555 -45.69659 19261 ft 406 kts 251°
2026-05-06 19:26 -23.27368 -45.72583 18714 ft 404 kts 251°
2026-05-06 19:27 -23.28178 -45.75506 18180 ft 403 kts 251°
2026-05-06 19:27 -23.28982 -45.78418 17607 ft 402 kts 251°
2026-05-06 19:27 -23.29782 -45.81316 17034 ft 400 kts 251°
2026-05-06 19:27 -23.30572 -45.84187 16489 ft 397 kts 251°
2026-05-06 19:28 -23.31366 -45.87074 15931 ft 395 kts 252°
2026-05-06 19:28 -23.32146 -45.89912 15403 ft 393 kts 252°
2026-05-06 19:28 -23.32935 -45.92749 14934 ft 388 kts 251°
2026-05-06 19:28 -23.33726 -45.95532 14827 ft 390 kts 251°
2026-05-06 19:29 -23.34531 -45.98364 14677 ft 391 kts 251°
2026-05-06 19:29 -23.35323 -46.01156 14490 ft 389 kts 252°
2026-05-06 19:29 -23.36124 -46.03981 14306 ft 389 kts 252°
2026-05-06 19:29 -23.36923 -46.06809 14084 ft 389 kts 252°
2026-05-06 19:30 -23.37712 -46.09598 13895 ft 388 kts 252°
2026-05-06 19:30 -23.38496 -46.12374 13727 ft 387 kts 252°
2026-05-06 19:30 -23.39286 -46.15174 13524 ft 387 kts 252°
2026-05-06 19:30 -23.40075 -46.17976 13305 ft 387 kts 252°
2026-05-06 19:31 -23.40860 -46.20764 13126 ft 385 kts 252°
2026-05-06 19:31 -23.41641 -46.23539 12952 ft 384 kts 252°
2026-05-06 19:31 -23.42325 -46.29275 12534 ft 382 kts 274°
2026-05-06 19:32 -23.41869 -46.32076 12314 ft 380 kts 286°
2026-05-06 19:32 -23.40903 -46.34731 12163 ft 379 kts 298°
2026-05-06 19:32 -23.39527 -46.37217 11991 ft 378 kts 303°
2026-05-06 19:32 -23.38112 -46.39595 11806 ft 375 kts 303°
2026-05-06 19:33 -23.36684 -46.41980 11617 ft 373 kts 304°
2026-05-06 19:33 -23.35283 -46.44312 11436 ft 372 kts 304°
2026-05-06 19:33 -23.33863 -46.46670 11250 ft 369 kts 304°
2026-05-06 19:33 -23.32474 -46.48974 11063 ft 360 kts 304°
2026-05-06 19:34 -23.31108 -46.51236 10874 ft 348 kts 304°
2026-05-06 19:34 -23.29810 -46.53383 10693 ft 338 kts 304°
2026-05-06 19:34 -23.28542 -46.55481 10521 ft 328 kts 304°
2026-05-06 19:34 -23.27308 -46.57518 10357 ft 318 kts 304°
2026-05-06 19:35 -23.26272 -46.59613 10188 ft 309 kts 293°
2026-05-06 19:35 -23.25551 -46.61779 9976 ft 303 kts 290°
2026-05-06 19:35 -23.24892 -46.63934 9767 ft 298 kts 290°
2026-05-06 19:35 -23.24240 -46.66063 9527 ft 293 kts 290°
2026-05-06 19:36 -23.23632 -46.68138 9296 ft 288 kts 283°
2026-05-06 19:36 -23.23585 -46.70298 9071 ft 284 kts 264°
2026-05-06 19:36 -23.23898 -46.72392 8868 ft 281 kts 261°
2026-05-06 19:36 -23.24277 -46.74485 8644 ft 282 kts 260°
2026-05-06 19:37 -23.24660 -46.76553 8459 ft 281 kts 260°
2026-05-06 19:37 -23.25059 -46.78640 8269 ft 281 kts 255°
2026-05-06 19:37 -23.25939 -46.80528 8048 ft 280 kts 234°
2026-05-06 19:37 -23.27171 -46.82161 7837 ft 280 kts 229°
2026-05-06 19:38 -23.28469 -46.83733 7609 ft 280 kts 225°
2026-05-06 19:38 -23.30083 -46.84870 7245 ft 276 kts 197°
2026-05-06 19:38 -23.31947 -46.85093 6873 ft 268 kts 169°
2026-05-06 19:38 -23.33661 -46.84375 6503 ft 262 kts 141°
2026-05-06 19:39 -23.34949 -46.83003 6141 ft 260 kts 127°
2026-05-06 19:39 -23.36035 -46.81424 5777 ft 262 kts 123°
2026-05-06 19:39 -23.37060 -46.79779 5397 ft 262 kts 122°
2026-05-06 19:39 -23.38059 -46.78135 5023 ft 261 kts 122°
2026-05-06 19:40 -23.39056 -46.76491 4663 ft 259 kts 122°
2026-05-06 19:40 -23.40024 -46.74896 4607 ft 247 kts 122°
2026-05-06 19:40 -23.40954 -46.73362 4570 ft 239 kts 122°
2026-05-06 19:40 -23.41870 -46.71851 4528 ft 238 kts 122°
2026-05-06 19:41 -23.42773 -46.70359 4473 ft 237 kts 122°
2026-05-06 19:41 -23.43701 -46.68873 4438 ft 237 kts 123°
2026-05-06 19:41 -23.44635 -46.67394 4397 ft 232 kts 123°
2026-05-06 19:41 -23.45518 -46.65991 4356 ft 219 kts 123°
2026-05-06 19:42 -23.46354 -46.64660 4324 ft 207 kts 123°
2026-05-06 19:42 -23.47125 -46.63333 4289 ft 204 kts 111°
2026-05-06 19:42 -23.47305 -46.61821 4260 ft 203 kts 84°
2026-05-06 19:42 -23.47018 -46.60327 4227 ft 202 kts 75°
2026-05-06 19:43 -23.46631 -46.58871 4198 ft 201 kts 74°
2026-05-06 19:43 -23.46236 -46.57380 4001 ft 204 kts 74°
2026-05-06 19:43 -23.45843 -46.55928 3749 ft 194 kts 74°
2026-05-06 19:43 -23.45480 -46.54586 3514 ft 178 kts 74°
2026-05-06 19:44 -23.45139 -46.53327 3310 ft 166 kts 74°
2026-05-06 19:44 -23.44829 -46.52183 3110 ft 156 kts 75°
2026-05-06 19:44 -23.44522 -46.51050 2913 ft 154 kts 74°
2026-05-06 19:44 -23.44222 -46.49942 2713 ft 154 kts 74°
2026-05-06 19:45 -23.43916 -46.48807 2508 ft 155 kts 74°
2026-05-06 19:45 -23.43633 -46.47777 2472 ft 123 kts 74°
2026-05-06 19:45 -23.43436 -46.47051 2473 ft 70 kts 75°
2026-05-06 19:45 -23.43319 -46.46623 2473 ft 44 kts 70°
2026-05-06 19:46 -23.43243 -46.46402 2473 ft 21 kts 50°
2026-05-06 19:46 -23.43170 -46.46318 2474 ft 9 kts 45°
2026-05-06 19:46 -23.43147 -46.46294 2474 ft 2 kts 45°
2026-05-06 19:46 -23.43121 -46.46266 2474 ft 7 kts 45°
2026-05-06 19:47 -23.43080 -46.46222 2474 ft 8 kts 45°
2026-05-06 19:47 -23.43041 -46.46179 2474 ft 7 kts 44°
2026-05-06 19:47 -23.42999 -46.46146 2474 ft 7 kts 25°
2026-05-06 19:47 -23.42953 -46.46146 2474 ft 6 kts 346°
2026-05-06 19:48 -23.42908 -46.46159 2474 ft 6 kts 344°
2026-05-06 19:48 -23.42862 -46.46175 2474 ft 8 kts 341°
2026-05-06 19:48 -23.42801 -46.46195 2474 ft 9 kts 344°
2026-05-06 19:48 -23.42741 -46.46214 2474 ft 9 kts 344°
2026-05-06 19:49 -23.42677 -46.46233 2474 ft 9 kts 344°
2026-05-06 19:49 -23.42625 -46.46263 2474 ft 7 kts 302°
2026-05-06 19:49 -23.42625 -46.46322 2474 ft 8 kts 251°
2026-05-06 19:49 -23.42640 -46.46377 2474 ft 2 kts 252°
2026-05-06 19:50 -23.42641 -46.46378 2474 ft 0 kts 252°
2026-05-06 19:51 -23.42634 -46.46355 2474 ft 12 kts 252°
2026-05-06 19:51 -23.42611 -46.46283 2474 ft 7 kts 252°
2026-05-06 19:51 -23.42602 -46.46253 2474 ft 1 kts 252°
2026-05-06 19:52 -23.42602 -46.46252 2474 ft 0 kts 252°